Location: Melbourne
(37.8170°S, 144.9670°E)
Time: 04:04:19
(UTC+11:00)

deb Explorer IX - All Passes

Search period start: 18 January 2017 00:00
Search period end: 28 January 2017 00:00
Orbit: 547 x 1123 km, 38.8° (Epoch: 15 January)

Date Brightness Start Highest point End Pass type
(mag) Time Alt. Az. Time Alt. Az. Time Alt. Az.
18 Jan - 01:03:50 10° NW 01:09:17 50° NNE 01:15:43 10° E visible
18 Jan - 02:50:27 10° W 02:56:42 87° S 03:03:55 10° E visible
18 Jan - 04:37:48 10° W 04:44:37 89° SSE 04:52:06 10° E visible
18 Jan - 06:25:21 10° W 06:32:18 53° NNW 06:39:31 10° NE daylight
18 Jan - 08:14:19 10° W 08:19:16 19° NW 08:24:12 10° N daylight
18 Jan - 23:01:08 10° NNE 23:03:52 14° NE 23:06:48 10° ENE night (unlit)
19 Jan - 00:44:52 10° NW 00:50:13 52° NNE 00:56:30 10° E visible
19 Jan - 02:31:30 10° W 02:37:35 86° S 02:44:41 10° E visible
19 Jan - 04:18:47 10° W 04:25:28 90° S 04:32:54 10° ENE visible
19 Jan - 06:06:17 10° W 06:13:07 51° NNW 06:20:18 10° NE daylight
19 Jan - 07:55:21 10° W 08:00:04 18° NW 08:04:48 10° N daylight
19 Jan - 22:42:02 10° N 22:44:47 15° NE 22:47:45 10° ENE night (unlit)
20 Jan - 00:25:55 10° NW 00:31:07 53° NNE 00:37:17 10° E visible
20 Jan - 02:12:33 10° W 02:18:29 85° S 02:25:27 10° E visible
20 Jan - 03:59:47 10° W 04:06:19 89° N 04:13:40 10° ENE visible
20 Jan - 05:47:14 10° W 05:53:55 49° NNW 06:01:02 10° NE visible
20 Jan - 07:36:25 10° WNW 07:40:51 17° NW 07:45:22 10° N daylight
20 Jan - 22:22:56 10° N 22:25:42 15° NE 22:28:40 10° ENE night (unlit)
21 Jan - 00:06:58 10° NW 00:12:02 54° NNE 00:18:05 10° E visible
21 Jan - 01:53:37 10° W 01:59:24 84° S 02:06:13 10° E visible
21 Jan - 03:40:48 10° W 03:47:10 88° NNW 03:54:26 10° ENE visible
21 Jan - 05:28:12 10° W 05:34:43 47° NNW 05:41:45 10° NE visible
21 Jan - 07:17:31 10° WNW 07:21:38 16° NW 07:25:51 10° N daylight
21 Jan - 22:03:51 10° N 22:06:37 15° NE 22:09:37 10° ENE visible
21 Jan - 23:48:01 10° NW 23:52:58 56° NNE 23:58:52 10° E night (unlit)
22 Jan - 01:34:41 10° W 01:40:18 83° S 01:46:59 10° E visible
22 Jan - 03:21:49 10° W 03:28:02 87° NNW 03:35:11 10° ENE visible
22 Jan - 05:09:11 10° W 05:15:32 45° NNW 05:22:26 10° NE visible
22 Jan - 06:58:41 10° WNW 07:02:26 15° NW 07:06:16 10° N daylight
22 Jan - 21:44:46 10° N 21:47:33 16° NE 21:50:33 10° ENE visible
22 Jan - 23:29:05 10° NW 23:33:55 57° NNE 23:39:39 10° E visible
23 Jan - 01:15:45 10° W 01:21:13 83° S 01:27:44 10° E visible
23 Jan - 03:02:50 10° W 03:08:53 85° NNW 03:15:56 10° ENE visible
23 Jan - 04:50:10 10° W 04:56:20 43° NNW 05:03:07 10° NE visible
23 Jan - 06:39:54 10° WNW 06:43:13 14° NW 06:46:36 10° NNW daylight
23 Jan - 21:25:41 10° N 21:28:28 16° NE 21:31:30 10° ENE visible
23 Jan - 23:10:09 10° WNW 23:14:52 59° NNE 23:20:27 10° E visible
24 Jan - 00:56:49 10° W 01:02:09 82° S 01:08:29 10° E visible
24 Jan - 02:43:51 10° W 02:49:45 83° NNW 02:56:40 10° ENE visible
24 Jan - 04:31:11 10° W 04:37:09 40° NNW 04:43:46 10° NE visible
24 Jan - 06:21:14 10° WNW 06:24:01 13° NW 06:26:51 10° NNW daylight
24 Jan - 21:06:35 10° N 21:09:25 17° NE 21:12:27 10° ENE visible
24 Jan - 22:51:12 10° WNW 22:55:49 61° NNE 23:01:15 10° E visible
25 Jan - 00:37:54 10° W 00:43:04 81° S 00:49:15 10° E visible
25 Jan - 02:24:53 10° W 02:30:38 81° NNW 02:37:23 10° ENE visible
25 Jan - 04:12:11 10° W 04:17:57 38° NNW 04:24:23 10° NE visible
25 Jan - 06:02:46 10° WNW 06:04:48 11° NW 06:06:52 10° NNW daylight
25 Jan - 20:47:29 10° N 20:50:20 17° NE 20:53:24 10° ENE daylight
25 Jan - 22:32:15 10° WNW 22:36:46 62° NNE 22:42:03 10° E visible
26 Jan - 00:18:58 10° W 00:24:00 80° S 00:30:01 10° E visible
26 Jan - 02:05:55 10° W 02:11:30 79° NNW 02:18:06 10° ENE visible
26 Jan - 03:53:14 10° W 03:58:47 36° NNW 04:05:00 10° NNE visible
26 Jan - 05:44:58 10° NW 05:45:35 10° NW 05:46:12 10° NW visible
26 Jan - 20:28:23 10° N 20:31:17 18° NE 20:34:23 10° E daylight
26 Jan - 22:13:18 10° WNW 22:17:44 64° NNE 22:22:52 10° E visible
27 Jan - 00:00:03 10° W 00:04:57 80° S 00:10:47 10° E visible
27 Jan - 01:46:58 10° W 01:52:23 77° NNW 01:58:49 10° ENE night (unlit)
27 Jan - 03:34:17 10° W 03:39:36 33° NNW 03:45:36 10° NNE visible
27 Jan - 20:09:16 10° N 20:12:13 19° NE 20:15:21 10° E daylight
27 Jan - 21:54:21 10° WNW 21:58:42 66° NNE 22:03:42 10° E visible
27 Jan - 23:41:07 10° W 23:45:53 79° S 23:51:33 10° E visible
